Regional Weather Roundup
Issued by NWS

Home | Current Version | Previous Version | Graphics & Text | Print | Product List | Glossary On
Versions: 1 2 3 4 5 6 7 8 9 10 11 12 13 14 15 16 17 18 19 20 21 22 23 24 25 26 27 28 29 30 31 32 33 34 35 36 37 38 39 40 41 42 43 44 45 46 47 48 49 50
619
ASUS43 KMPX 012201
RWRMN
WEATHER ROUNDUP FOR MINNESOTA
NATIONAL WEATHER SERVICE TWIN CITIES/CHANHASSEN MN
500 PM CDT SUN MAY 01 2016


NOTE: "FAIR" INDICATES FEW OR NO CLOUDS BELOW 12,000 FEET WITH NO
SIGNIFICANT WEATHER AND/OR OBSTRUCTIONS TO VISIBILITY. N/A MEANS
CURRENT SKY AND/OR WEATHER CONDITIONS ARE NOT AVAILABLE.

MNZ060>063-068>070-012300-
   Twin Cities Metro

CITY           SKY/WX    TMP DP  RH WIND       PRES   REMARKS
TWIN CITIES    PTSUNNY   60  34  37 NE10      30.10S
ST PAUL        MOSUNNY   62  36  37 NE9       30.10S
CRYSTAL        MOSUNNY   62  34  35 E8        30.10S
BLAINE         MOSUNNY   63  36  36 N8G14     30.10F
EDEN PRAIRIE   MOSUNNY   61  34  36 NE6G26    30.09F
SOUTH ST PAUL  PTSUNNY   62  33  33 N7        30.09S
LAKE ELMO      PTSUNNY   61  36  39 N8        30.10S
$$
MNZ001>005-007-008-013>017-022>024-027-028-012300-
   Northwest Minnesota

CITY           SKY/WX    TMP DP  RH WIND       PRES   REMARKS
BEMIDJI        SUNNY     60  31  33 NW6       30.15F
HALLOCK        SUNNY     66  21  18 N7        30.16F
ROSEAU         SUNNY     61  32  33 E8        30.18F
WARROAD        SUNNY     57  32  38 E8        30.19F
THIEF RVR FALL SUNNY     63  27  25 NE7       30.18F
CROOKSTON      SUNNY     64  28  25 N3        30.17F
FOSSTON        SUNNY     64  32  29 N5        30.17F
DETROIT LAKES  SUNNY     61  30  31 NE7       30.16F
MOORHEAD       SUNNY     64  28  25 N8        30.16F
PARK RAPIDS    SUNNY     62  27  26 E3        30.14F
MAHNOMEN       FAIR      61  26  26 N8        30.16F
$$
MNZ006-009>011-018-025>026-012300-
   North Central Minnesota

CITY           SKY/WX    TMP DP  RH WIND       PRES   REMARKS
BAUDETTE       SUNNY     60  27  28 NW13      30.17F
FLAG ISLAND    SUNNY     52  37  58 S5        30.17F
INTL FALLS     SUNNY     59  26  28 NE9       30.16F
WASKISH        SUNNY     61  36  39 W7        30.16F
BIG FORK       SUNNY     63  28  27 N5        30.14F
LONGVILLE      SUNNY     61  30  31 CALM      30.14F
GRAND RAPIDS   SUNNY     61  27  27 SE5       30.16F
CRANE LAKE     SUNNY     57  27  30 N3        30.17F
ORR            SUNNY     61  25  25 CALM      30.13F
COOK           SUNNY     61  28  29 E5        30.15F
WALKER         FAIR      58  30  34 E5        30.15F
$$
MNZ012-019>021-037-012300-
   Northeast Minnesota

CITY           SKY/WX    TMP DP  RH WIND       PRES   REMARKS
DULUTH         MOSUNNY   53  32  44 SE18      30.16F
ELY            SUNNY     57  27  30 NE5       30.14F
HIBBING        SUNNY     60  28  29 N3        30.13F
EVELETH        SUNNY     59  30  33 NW5       30.15S
DULUTH HARBOR  SUNNY     43  37  81 NE5       30.21S
TWO HARBORS    SUNNY     54  39  58 E8        30.16F
SILVER BAY     SUNNY     52  36  54 NE8       30.16F
GRAND MARAIS     N/A     43  35  73 CALM      30.20F
G MARAIS ARPRT SUNNY     52  28  40 S8        30.18S
$$
MNZ029>031-032-039>041-046>048-054>057-064-012300-
   West Central Minnesota

CITY           SKY/WX    TMP DP  RH WIND       PRES   REMARKS
FERGUS FALLS   SUNNY     63  32  31 N9        30.13F
WHEATON        SUNNY     64  36  34 N12G17    30.17F
MORRIS         SUNNY     64  32  29 NE14G23   30.14F
ALEXANDRIA     SUNNY     61  30  31 NE8       30.15F
ELBOW LAKE     FAIR      60  31  33 NE6       30.16F
WADENA         SUNNY     61  32  33 E3        30.14F
GLENWOOD       SUNNY     61  28  29 N9        30.15F
APPLETON       SUNNY     63  25  23 N9        30.14F
BENSON         SUNNY     63  21  20 NE10      30.15S
ORTONVILLE     SUNNY     61  30  31 NE10G17   30.15F
MADISON        SUNNY     61  30  31 N7        30.15F
WILLMAR        FAIR      61  34  36 NE9G17    30.15S
$$
MNZ033>034-036-042>043-049>051-058-059-012300-
   Central Minnesota

CITY           SKY/WX    TMP DP  RH WIND       PRES   REMARKS
ST CLOUD       SUNNY     59  32  36 NE7       30.12F
SAUK CENTRE    FAIR      59  31  34 N5        30.14F
PAYNESVILLE    MOSUNNY   60  31  33 N12       30.14S
AITKIN         SUNNY     64  25  22 N5        30.12F
PINE RIVER     SUNNY     61  34  36 N7        30.17S
BRAINERD       SUNNY     60  28  29 E3        30.14F
STAPLES        SUNNY     61  25  25 N3        30.14S
LONG PRAIRIE   FAIR      59  32  36 N5        30.15S
LITTLE FALLS   SUNNY     59  28  31 CALM      30.14F
LITCHFIELD     SUNNY     61  32  33 NE12G17   30.13S
BUFFALO        SUNNY     60  32  34 N3        30.13S
MAPLE LAKE     SUNNY     62  37  40 NE3       30.13F
HUTCHINSON       N/A     61  39  44 NE13      30.13
$$
MNZ037-044-045-052-053-012300-
   East Central Minnesota

CITY           SKY/WX    TMP DP  RH WIND       PRES   REMARKS
PRINCETON      SUNNY     63  34  34 NE7       30.13S
MORA           SUNNY     59  32  36 NE8       30.14F
CAMBRIDGE      MOSUNNY   63  41  45 N8        30.10S
RUSH CITY      MOSUNNY   61  35  37 NE10G16   30.11S
MOOSE LAKE     SUNNY     55  32  41 NE10      30.14S
HINCKLEY       FAIR      61  37  41 N8        30.13S
CLOQUET        SUNNY     54  30  40 E10       30.16F
MCGREGOR       SUNNY     59  32  36 E8        30.15S
$$
MNZ071>073-080-081-089-090-097-098-012300-
   Southwest Minnesota

CITY           SKY/WX    TMP DP  RH WIND       PRES   REMARKS
MONTEVIDEO     SUNNY     63  30  29 NE10G17   30.16S
GRANITE FALLS  SUNNY     62  33  33 N7G18     30.15F
CANBY          SUNNY     63  37  38 NE13      30.16F
MARSHALL       SUNNY     58  32  37 N13       30.14F
REDWOOD FALLS  MOSUNNY   62  31  31 NE12      30.13S
OLIVIA         MOSUNNY   59  32  36 NE10G21   30.12F
PIPESTONE      MOSUNNY   57  30  35 N7        30.14F
WINDOM         MOSUNNY   57  36  44 N9G16     30.13S
WORTHINGTON    PTSUNNY   55  38  52 NE12      30.13F
JACKSON        PTSUNNY   54  37  54 N7G13     30.12S
TRACY          MOSUNNY   60  37  42 N9        30.13F
SLAYTON        MOSUNNY   55  35  46 N10       30.14F
$$
MNZ065>067-074>077-082>085-091>093-012300-
   South Central Minnesota

CITY           SKY/WX    TMP DP  RH WIND       PRES   REMARKS
MANKATO        MOSUNNY   61  36  39 N8        30.10S
NEW ULM        MOSUNNY   57  36  44 N6        30.11F
ST JAMES       MOSUNNY   54  36  50 NW10G17   30.12S
FAIRMONT       CLOUDY    57  32  38 N13       30.10S
GLENCOE        MOSUNNY   60  41  48 N8        30.11F
FARIBAULT      MOSUNNY   63  34  34 N7G16     30.08F
OWATONNA       SUNNY     61  34  36 NE8G16    30.07S
WASECA         MOSUNNY   59  36  41 N9        30.09S
ALBERT LEA     CLOUDY    55  37  50 NE10      30.08R
$$
MNZ078>079-086>088-094>096-012300-
   Southeast Minnesota

CITY           SKY/WX    TMP DP  RH WIND       PRES   REMARKS
ROCHESTER      CLOUDY    57  39  51 NE8       30.07S
RED WING       PTSUNNY   64  30  27 NE3       30.06S
STANTON        PTSUNNY   63  33  32 NE9G20    30.07S
DODGE CENTER   CLOUDY    61  37  41 N14       30.06S
WINONA         CLOUDY    57  39  51 SE6       30.06S
AUSTIN         CLOUDY    55  37  50 NE7       30.07R
PRESTON        DRIZZLE   51  38  61 E8        30.07S
$$
ABBREVIATIONS USED IN REMARKS
   TC - TEMPERATURES IN CELSIUS
  WCI - WIND CHILL INDEX
   HX - HEAT INDEX
  VSB - VISIBILITY
$$




USA.gov is the U.S. government's official web portal to all federal, state and local government web resources and services.